Погода в Евтино

Россия / Кемеровская область (Кузбасс)     54°21′22″N   86°42′04″E
темп.,
°C
ветер,
м/с
пор.,
м/с
влажн.,
%
обл.,
%
осадки,
мм/ч
давл.,
гПа
погр.,
м
12 мая, ср
ср1201:00+11св3751100 0.0 1014110
04:00+10ссв2252100 0.0 101320
07:00+10ссз1157100 0.0 101459
10:00+15в2345100 0.0 1014495
13:00+18всв2336100 0.0 10131376
16:00+19св3330100 0.0 10132449
19:00+18св473695 0.0 1013438
22:00+13ссв124790 0.0 101411
13 мая, чт
чт1301:00+11сз225347 0.0 101413
04:00+9с016131 0.0 101410
07:00+10ююв246666 0.0 1015145
10:00+15ю344963 0.0 1014733
13:00+19ююз223571 0.0 10122602
16:00+12з5668100 2.0 1013206
19:00+13ююв346988 2.5 1012174
22:00+10ю347798 0.2 101376
14 мая, пт
пт1401:00+9зюз4790100 0.7 1013192
04:00+9сз369398 0.1 1013158
07:00+9сз4891100 0.3 1015510
10:00+9ссз387949 0.2 1016660
13:00+15сз8943100 0.2 10162242
16:00+13сз710435 0.1 10181910
19:00+12ссз793596 0.1 10201877
22:00+8сз3744100 0.0 1023140
15 мая, сб
сб1501:00+7зюз224883 0.0 102426
04:00+7зюз2545100 0.0 1024100
07:00+8юз3849100 0.0 1025226
10:00+9ююз3754100 0.0 1025235
13:00+11ююз5951100 0.3 1024577
16:00+11ю5970100 0.3 1023551
19:00+14ююв6960100 0.3 1021292
22:00+12ю51167100 0.0 1020292
16 мая, вс
вс1601:00+13ююз5126091 0.1 1019372
04:00+12ююз5116899 0.6 1018275
07:00+13ююз497094 1.3 1017394
10:00+18юз68546 0.1 1016716
13:00+24юз794378 0.4 10131525
16:00+21юз7104927 0.0 1011648
19:00+16ююв41078100 2.4 1009227
22:00+14сз21092100 5.9 1012569